N441JK NFFN-NSFA

Flight info

Callsign N441JK
Flight time 1h 29m
Altitude 45000
Route ALPHA NN R453 UVUTI UVUTI2D
Aircraft C750/M-SBDE3FGHRWXY/S

Departure

Time 2026-05-05 15:41
Airport Nadi International Airport (NFFN)

Arrival

Time 2026-05-05 17:10
Airport Faleolo International Airport (NSFA)
Time Latitude Longitude Altitude Speed Heading
2026-05-05 15:21 -17.75758 177.44849 58 ft 0 kts 338°
2026-05-05 15:33 -17.75756 177.44849 58 ft 0 kts 338°
2026-05-05 15:36 -17.75750 177.44846 58 ft 3 kts 339°
2026-05-05 15:36 -17.75719 177.44826 58 ft 4 kts 276°
2026-05-05 15:37 -17.75716 177.44783 58 ft 8 kts 310°
2026-05-05 15:37 -17.75653 177.44736 57 ft 13 kts 324°
2026-05-05 15:37 -17.75580 177.44725 56 ft 14 kts 101°
2026-05-05 15:37 -17.75604 177.44841 56 ft 17 kts 82°
2026-05-05 15:38 -17.75504 177.44899 54 ft 15 kts 14°
2026-05-05 15:38 -17.75394 177.44923 52 ft 9 kts 354°
2026-05-05 15:38 -17.75311 177.44914 51 ft 13 kts
2026-05-05 15:38 -17.75203 177.44937 49 ft 16 kts
2026-05-05 15:39 -17.75156 177.44858 46 ft 13 kts 285°
2026-05-05 15:39 -17.75135 177.44765 44 ft 8 kts 285°
2026-05-05 15:39 -17.75124 177.44720 44 ft 4 kts 284°
2026-05-05 15:39 -17.75122 177.44655 44 ft 13 kts 246°
2026-05-05 15:40 -17.75147 177.44627 44 ft 0 kts 218°
2026-05-05 15:41 -17.75149 177.44626 44 ft 0 kts 218°
2026-05-05 15:41 -17.75321 177.44487 48 ft 65 kts 219°
2026-05-05 15:41 -17.75968 177.43967 47 ft 162 kts 216°
2026-05-05 15:41 -17.76937 177.43175 849 ft 193 kts 216°
2026-05-05 15:42 -17.78027 177.42268 1979 ft 215 kts 216°
2026-05-05 15:42 -17.79156 177.41264 3283 ft 229 kts 230°
2026-05-05 15:42 -17.79658 177.39681 4533 ft 249 kts 272°
2026-05-05 15:42 -17.79059 177.37979 5754 ft 265 kts 310°
2026-05-05 15:43 -17.77528 177.36900 6950 ft 279 kts 345°
2026-05-05 15:43 -17.75580 177.36911 8184 ft 289 kts 20°
2026-05-05 15:43 -17.73833 177.37897 9475 ft 296 kts 29°
2026-05-05 15:43 -17.71823 177.38470 10653 ft 309 kts
2026-05-05 15:44 -17.69645 177.38861 11668 ft 327 kts 10°
2026-05-05 15:44 -17.67402 177.39351 12687 ft 341 kts 20°
2026-05-05 15:44 -17.65457 177.40752 13786 ft 348 kts 49°
2026-05-05 15:44 -17.64266 177.42938 14800 ft 353 kts 76°
2026-05-05 15:45 -17.63924 177.45467 15788 ft 359 kts 83°
2026-05-05 15:45 -17.63275 177.48022 16707 ft 369 kts 78°
2026-05-05 15:45 -17.62626 177.50644 17584 ft 377 kts 78°
2026-05-05 15:45 -17.61928 177.53343 18472 ft 385 kts 79°
2026-05-05 15:46 -17.61231 177.56055 19319 ft 392 kts 79°
2026-05-05 15:46 -17.60517 177.58827 20086 ft 401 kts 79°
2026-05-05 15:46 -17.59780 177.61688 20872 ft 409 kts 79°
2026-05-05 15:46 -17.59037 177.64561 21708 ft 413 kts 79°
2026-05-05 15:47 -17.58279 177.67477 22468 ft 420 kts 79°
2026-05-05 15:47 -17.57773 177.69444 22945 ft 424 kts 79°
2026-05-05 15:47 -17.56747 177.73433 23960 ft 432 kts 79°
2026-05-05 15:47 -17.55955 177.76482 24780 ft 436 kts 79°
2026-05-05 15:48 -17.55157 177.79562 25386 ft 445 kts 79°
2026-05-05 15:48 -17.54339 177.82709 26186 ft 448 kts 79°
2026-05-05 15:48 -17.53519 177.85869 26866 ft 453 kts 79°
2026-05-05 15:48 -17.52694 177.89064 27532 ft 457 kts 79°
2026-05-05 15:49 -17.51862 177.92258 28023 ft 462 kts 79°
2026-05-05 15:49 -17.51009 177.95535 28436 ft 468 kts 79°
2026-05-05 15:49 -17.50153 177.98831 28980 ft 471 kts 79°
2026-05-05 15:49 -17.49292 178.02113 29495 ft 474 kts 79°
2026-05-05 15:50 -17.48422 178.05467 29949 ft 477 kts 79°
2026-05-05 15:50 -17.47545 178.08826 30440 ft 480 kts 79°
2026-05-05 15:50 -17.46673 178.12175 30867 ft 483 kts 79°
2026-05-05 15:50 -17.45784 178.15585 31273 ft 487 kts 79°
2026-05-05 15:51 -17.44887 178.19002 31749 ft 489 kts 79°
2026-05-05 15:51 -17.43986 178.22456 32106 ft 493 kts 79°
2026-05-05 15:51 -17.43080 178.25922 32441 ft 498 kts 79°
2026-05-05 15:51 -17.42161 178.29423 32926 ft 499 kts 78°
2026-05-05 15:52 -17.41240 178.32958 33300 ft 503 kts 78°
2026-05-05 15:52 -17.40313 178.36473 33730 ft 505 kts 78°
2026-05-05 15:52 -17.39378 178.40048 34186 ft 507 kts 78°
2026-05-05 15:52 -17.38435 178.43630 34843 ft 503 kts 77°
2026-05-05 15:53 -17.37503 178.47183 35394 ft 503 kts 77°
2026-05-05 15:53 -17.36559 178.50755 35925 ft 502 kts 76°
2026-05-05 15:53 -17.35639 178.54257 36426 ft 501 kts 76°
2026-05-05 15:53 -17.34715 178.57745 36933 ft 500 kts 76°
2026-05-05 15:54 -17.33785 178.61264 37384 ft 499 kts 75°
2026-05-05 15:54 -17.32861 178.64774 37866 ft 498 kts 75°
2026-05-05 15:54 -17.31942 178.68247 38270 ft 498 kts 74°
2026-05-05 15:54 -17.31017 178.71733 38677 ft 499 kts 74°
2026-05-05 15:55 -17.30094 178.75205 39166 ft 498 kts 74°
2026-05-05 15:55 -17.29164 178.78716 39674 ft 496 kts 74°
2026-05-05 15:55 -17.28249 178.82170 40169 ft 495 kts 73°
2026-05-05 15:55 -17.27335 178.85603 40583 ft 495 kts 74°
2026-05-05 15:56 -17.26421 178.89050 41038 ft 493 kts 74°
2026-05-05 15:56 -17.25507 178.92484 41417 ft 494 kts 73°
2026-05-05 15:56 -17.24580 178.95969 41903 ft 493 kts 73°
2026-05-05 15:56 -17.23671 178.99385 42345 ft 492 kts 73°
2026-05-05 15:57 -17.22757 179.02812 42728 ft 492 kts 73°
2026-05-05 15:57 -17.21841 179.06251 43038 ft 493 kts 73°
2026-05-05 15:57 -17.20865 179.09666 43426 ft 492 kts 69°
2026-05-05 15:57 -17.19633 179.13013 43755 ft 492 kts 68°
2026-05-05 15:58 -17.18446 179.16338 44129 ft 491 kts 68°
2026-05-05 15:58 -17.17256 179.19694 44494 ft 491 kts 68°
2026-05-05 15:58 -17.16078 179.23025 44861 ft 491 kts 68°
2026-05-05 15:59 -17.13686 179.29768 44842 ft 501 kts 68°
2026-05-05 15:59 -17.11238 179.36682 44850 ft 511 kts 68°
2026-05-05 16:00 -17.08747 179.43697 44863 ft 521 kts 68°
2026-05-05 16:00 -17.06218 179.50804 44855 ft 530 kts 68°
2026-05-05 16:01 -17.03612 179.58128 44854 ft 539 kts 68°
2026-05-05 16:01 -17.01000 179.65466 44856 ft 546 kts 68°
2026-05-05 16:02 -16.98341 179.72914 44843 ft 550 kts 68°
2026-05-05 16:02 -16.95684 179.80356 44842 ft 545 kts 68°
2026-05-05 16:03 -16.93036 179.87761 44844 ft 541 kts 68°
2026-05-05 16:03 -16.90417 179.95070 44837 ft 539 kts 68°
2026-05-05 16:04 -16.87784 -179.97591 44840 ft 536 kts 68°
2026-05-05 16:04 -16.85177 -179.90332 44837 ft 534 kts 68°
2026-05-05 16:05 -16.82579 -179.83105 44831 ft 532 kts 68°
2026-05-05 16:05 -16.79998 -179.75935 44831 ft 531 kts 68°
2026-05-05 16:06 -16.77399 -179.68727 44825 ft 529 kts 68°
2026-05-05 16:06 -16.74814 -179.61562 44825 ft 528 kts 68°
2026-05-05 16:07 -16.72216 -179.54381 44827 ft 527 kts 68°
2026-05-05 16:07 -16.69639 -179.47250 44809 ft 526 kts 68°
2026-05-05 16:08 -16.67069 -179.40147 44823 ft 524 kts 67°
2026-05-05 16:08 -16.64496 -179.33052 44819 ft 522 kts 68°
2026-05-05 16:09 -16.61940 -179.26024 44821 ft 521 kts 68°
2026-05-05 16:09 -16.59386 -179.18990 44819 ft 520 kts 67°
2026-05-05 16:10 -16.56814 -179.11917 44816 ft 519 kts 67°
2026-05-05 16:10 -16.54253 -179.04898 44823 ft 518 kts 67°
2026-05-05 16:11 -16.51713 -178.97928 44822 ft 517 kts 67°
2026-05-05 16:12 -16.46605 -178.83955 44824 ft 516 kts 67°
2026-05-05 16:13 -16.40188 -178.66450 44834 ft 523 kts 67°
2026-05-05 16:13 -16.37597 -178.59389 44837 ft 527 kts 68°
2026-05-05 16:14 -16.32334 -178.45079 44821 ft 528 kts 67°
2026-05-05 16:15 -16.27118 -178.30930 44808 ft 520 kts 67°
2026-05-05 16:16 -16.21998 -178.17036 44803 ft 513 kts 67°
2026-05-05 16:17 -16.18150 -178.06607 44810 ft 518 kts 68°
2026-05-05 16:18 -16.14265 -177.96092 44805 ft 522 kts 67°
2026-05-05 16:19 -16.10333 -177.85467 44803 ft 527 kts 67°
2026-05-05 16:19 -16.06362 -177.74760 44820 ft 531 kts 68°
2026-05-05 16:20 -16.01027 -177.60399 44817 ft 536 kts 68°
2026-05-05 16:22 -15.94354 -177.42485 44801 ft 526 kts 68°
2026-05-05 16:23 -15.89123 -177.28479 44796 ft 515 kts 67°
2026-05-05 16:23 -15.85264 -177.18164 44797 ft 508 kts 67°
2026-05-05 16:24 -15.82705 -177.11330 44799 ft 504 kts 67°
2026-05-05 16:25 -15.78912 -177.01219 44812 ft 500 kts 67°
2026-05-05 16:25 -15.75108 -176.91098 44800 ft 508 kts 67°
2026-05-05 16:26 -15.69885 -176.77231 44806 ft 526 kts 67°
2026-05-05 16:27 -15.67193 -176.70094 44809 ft 534 kts 67°
2026-05-05 16:27 -15.64474 -176.62897 44810 ft 542 kts 67°
2026-05-05 16:28 -15.61717 -176.55600 44796 ft 539 kts 67°
2026-05-05 16:28 -15.59030 -176.48498 44801 ft 527 kts 67°
2026-05-05 16:29 -15.56365 -176.41466 44788 ft 516 kts 67°
2026-05-05 16:29 -15.53788 -176.34672 44807 ft 506 kts 66°
2026-05-05 16:30 -15.51230 -176.27930 44797 ft 496 kts 66°
2026-05-05 16:30 -15.48715 -176.21317 44798 ft 487 kts 66°
2026-05-05 16:31 -15.46254 -176.14842 44792 ft 478 kts 66°
2026-05-05 16:31 -15.43800 -176.08400 44811 ft 486 kts 66°
2026-05-05 16:32 -15.41300 -176.01854 44818 ft 495 kts 66°
2026-05-05 16:32 -15.38759 -175.95192 44817 ft 505 kts 66°
2026-05-05 16:33 -15.36154 -175.88368 44802 ft 514 kts 66°
2026-05-05 16:33 -15.33500 -175.81433 44816 ft 523 kts 66°
2026-05-05 16:34 -15.30809 -175.74390 44799 ft 528 kts 66°
2026-05-05 16:34 -15.28081 -175.67281 44805 ft 531 kts 66°
2026-05-05 16:35 -15.25358 -175.60181 44801 ft 531 kts 66°
2026-05-05 16:35 -15.22640 -175.53105 44806 ft 530 kts 66°
2026-05-05 16:36 -15.19922 -175.46039 44818 ft 529 kts 66°
2026-05-05 16:36 -15.17194 -175.38959 44805 ft 529 kts 66°
2026-05-05 16:37 -15.14477 -175.31914 44795 ft 528 kts 66°
2026-05-05 16:37 -15.11743 -175.24837 44794 ft 527 kts 66°
2026-05-05 16:38 -15.09034 -175.17821 44799 ft 526 kts 66°
2026-05-05 16:38 -15.06337 -175.10851 44793 ft 524 kts 66°
2026-05-05 16:39 -15.03626 -175.03856 44804 ft 521 kts 66°
2026-05-05 16:39 -15.00944 -174.96935 44797 ft 519 kts 66°
2026-05-05 16:40 -14.98268 -174.90041 44801 ft 517 kts 66°
2026-05-05 16:40 -14.95603 -174.83180 44800 ft 515 kts 66°
2026-05-05 16:41 -14.92947 -174.76352 44802 ft 513 kts 65°
2026-05-05 16:41 -14.90279 -174.69499 44805 ft 513 kts 65°
2026-05-05 16:42 -14.87621 -174.62677 44806 ft 513 kts 66°
2026-05-05 16:42 -14.84959 -174.55852 44807 ft 513 kts 65°
2026-05-05 16:43 -14.82295 -174.49034 44807 ft 513 kts 66°
2026-05-05 16:43 -14.79613 -174.42171 44805 ft 513 kts 66°
2026-05-05 16:44 -14.76953 -174.35368 44812 ft 513 kts 66°
2026-05-05 16:44 -14.74268 -174.28514 44798 ft 513 kts 65°
2026-05-05 16:45 -14.71600 -174.21712 44801 ft 512 kts 65°
2026-05-05 16:45 -14.68923 -174.14893 44801 ft 512 kts 65°
2026-05-05 16:46 -14.66246 -174.08079 44800 ft 512 kts 65°
2026-05-05 16:46 -14.63568 -174.01271 44454 ft 505 kts 65°
2026-05-05 16:47 -14.62275 -173.97980 43626 ft 496 kts 65°
2026-05-05 16:47 -14.60982 -173.94696 42900 ft 487 kts 65°
2026-05-05 16:47 -14.59724 -173.91507 42123 ft 479 kts 65°
2026-05-05 16:47 -14.58479 -173.88347 41313 ft 472 kts 65°
2026-05-05 16:48 -14.57265 -173.85266 40591 ft 465 kts 65°
2026-05-05 16:48 -14.56054 -173.82199 39978 ft 456 kts 65°
2026-05-05 16:48 -14.54872 -173.79207 39427 ft 449 kts 65°
2026-05-05 16:48 -14.53693 -173.76222 38909 ft 448 kts 65°
2026-05-05 16:49 -14.52515 -173.73244 38388 ft 448 kts 65°
2026-05-05 16:49 -14.51344 -173.70279 37898 ft 448 kts 65°
2026-05-05 16:49 -14.50163 -173.67296 37340 ft 449 kts 65°
2026-05-05 16:49 -14.48988 -173.64319 36707 ft 452 kts 64°
2026-05-05 16:50 -14.47809 -173.61340 35611 ft 446 kts 64°
2026-05-05 16:50 -14.46656 -173.58421 34828 ft 429 kts 64°
2026-05-05 16:50 -14.45546 -173.55618 34233 ft 422 kts 64°
2026-05-05 16:50 -14.44455 -173.52867 33641 ft 415 kts 64°
2026-05-05 16:51 -14.43360 -173.50105 33088 ft 421 kts 64°
2026-05-05 16:51 -14.42222 -173.47252 32567 ft 446 kts 64°
2026-05-05 16:51 -14.41001 -173.44180 32007 ft 470 kts 64°
2026-05-05 16:51 -14.39761 -173.41048 31390 ft 479 kts 64°
2026-05-05 16:52 -14.38501 -173.37872 30760 ft 478 kts 64°
2026-05-05 16:52 -14.37258 -173.34732 30140 ft 466 kts 64°
2026-05-05 16:52 -14.36047 -173.31682 29506 ft 456 kts 63°
2026-05-05 16:52 -14.34870 -173.28716 28855 ft 446 kts 63°
2026-05-05 16:53 -14.33692 -173.25760 28130 ft 440 kts 63°
2026-05-05 16:53 -14.32540 -173.22867 27416 ft 433 kts 63°
2026-05-05 16:53 -14.31411 -173.20026 26772 ft 425 kts 63°
2026-05-05 16:53 -14.30300 -173.17241 26212 ft 415 kts 63°
2026-05-05 16:54 -14.29219 -173.14520 25680 ft 408 kts 62°
2026-05-05 16:54 -14.28136 -173.11812 25156 ft 409 kts 62°
2026-05-05 16:54 -14.27066 -173.09132 24592 ft 410 kts 62°
2026-05-05 16:54 -14.25969 -173.06381 23952 ft 412 kts 62°
2026-05-05 16:55 -14.24882 -173.03661 23287 ft 413 kts 62°
2026-05-05 16:55 -14.23795 -173.00932 22632 ft 410 kts 62°
2026-05-05 16:55 -14.22724 -172.98248 22022 ft 405 kts 63°
2026-05-05 16:55 -14.21666 -172.95604 21422 ft 395 kts 62°
2026-05-05 16:56 -14.20643 -172.93045 20824 ft 384 kts 63°
2026-05-05 16:56 -14.19637 -172.90523 20227 ft 375 kts 63°
2026-05-05 16:56 -14.18651 -172.88060 19631 ft 367 kts 63°
2026-05-05 16:56 -14.17670 -172.85620 19050 ft 373 kts 63°
2026-05-05 16:57 -14.16692 -172.83176 18454 ft 376 kts 63°
2026-05-05 16:57 -14.15706 -172.80708 17835 ft 370 kts 63°
2026-05-05 16:57 -14.14727 -172.78265 17219 ft 366 kts 64°
2026-05-05 16:57 -14.13771 -172.75877 16617 ft 361 kts 64°
2026-05-05 16:58 -14.12809 -172.73474 16014 ft 357 kts 64°
2026-05-05 16:58 -14.11887 -172.71173 15434 ft 349 kts 64°
2026-05-05 16:58 -14.10965 -172.68872 14842 ft 340 kts 64°
2026-05-05 16:58 -14.10061 -172.66626 14268 ft 346 kts 64°
2026-05-05 16:59 -14.09131 -172.64310 13664 ft 352 kts 65°
2026-05-05 16:59 -14.08200 -172.61992 13040 ft 358 kts 65°
2026-05-05 16:59 -14.07247 -172.59613 12316 ft 356 kts 65°
2026-05-05 16:59 -14.06314 -172.57286 11632 ft 344 kts 65°
2026-05-05 17:00 -14.05422 -172.55058 10974 ft 334 kts 65°
2026-05-05 17:00 -14.04555 -172.52905 10319 ft 326 kts 65°
2026-05-05 17:00 -14.03704 -172.50784 10302 ft 315 kts 65°
2026-05-05 17:00 -14.02895 -172.48766 10183 ft 293 kts 65°
2026-05-05 17:01 -14.02095 -172.46870 10071 ft 292 kts 59°
2026-05-05 17:01 -14.00895 -172.45184 9838 ft 303 kts 49°
2026-05-05 17:01 -13.99596 -172.43488 9084 ft 294 kts 50°
2026-05-05 17:01 -13.98378 -172.41882 8442 ft 282 kts 50°
2026-05-05 17:02 -13.97183 -172.40308 7817 ft 273 kts 50°
2026-05-05 17:02 -13.96018 -172.38774 7241 ft 276 kts 50°
2026-05-05 17:02 -13.94842 -172.37222 6601 ft 278 kts 50°
2026-05-05 17:02 -13.93648 -172.35654 5946 ft 279 kts 50°
2026-05-05 17:03 -13.92457 -172.34082 5218 ft 275 kts 49°
2026-05-05 17:03 -13.91323 -172.32588 4604 ft 260 kts 49°
2026-05-05 17:03 -13.90230 -172.31145 4047 ft 250 kts 49°
2026-05-05 17:03 -13.89165 -172.29748 3491 ft 252 kts 49°
2026-05-05 17:04 -13.88115 -172.28361 3450 ft 243 kts 49°
2026-05-05 17:04 -13.87064 -172.26982 3465 ft 243 kts 49°
2026-05-05 17:04 -13.86033 -172.25626 3465 ft 242 kts 49°
2026-05-05 17:04 -13.84919 -172.24333 3459 ft 240 kts 42°
2026-05-05 17:05 -13.83707 -172.23128 3452 ft 244 kts 47°
2026-05-05 17:05 -13.83130 -172.21565 3412 ft 230 kts 85°
2026-05-05 17:05 -13.83189 -172.19986 3269 ft 212 kts 87°
2026-05-05 17:05 -13.83194 -172.18578 3046 ft 181 kts 85°
2026-05-05 17:06 -13.83196 -172.17387 2843 ft 153 kts 85°
2026-05-05 17:06 -13.83186 -172.16348 2606 ft 136 kts 84°
2026-05-05 17:06 -13.83174 -172.15398 2429 ft 129 kts 83°
2026-05-05 17:06 -13.83161 -172.14465 2295 ft 134 kts 83°
2026-05-05 17:07 -13.83154 -172.13953 2231 ft 138 kts 83°
2026-05-05 17:07 -13.83136 -172.12915 2089 ft 148 kts 84°
2026-05-05 17:07 -13.83128 -172.11859 1895 ft 143 kts 84°
2026-05-05 17:07 -13.83126 -172.10881 1649 ft 134 kts 84°
2026-05-05 17:08 -13.83127 -172.09933 1343 ft 134 kts 85°
2026-05-05 17:08 -13.83119 -172.08949 1120 ft 144 kts 85°
2026-05-05 17:08 -13.83094 -172.07919 1096 ft 140 kts 84°
2026-05-05 17:08 -13.83087 -172.06957 908 ft 133 kts 87°
2026-05-05 17:09 -13.83069 -172.06009 751 ft 132 kts 85°
2026-05-05 17:09 -13.83053 -172.05069 603 ft 128 kts 88°
2026-05-05 17:09 -13.83044 -172.04147 479 ft 130 kts 88°
2026-05-05 17:09 -13.83035 -172.03235 323 ft 128 kts 88°
2026-05-05 17:10 -13.83020 -172.02328 131 ft 124 kts 89°
2026-05-05 17:10 -13.83013 -172.01504 65 ft 93 kts 89°
2026-05-05 17:10 -13.83008 -172.01057 42 ft 50 kts 88°
2026-05-05 17:10 -13.83003 -172.00844 36 ft 24 kts 90°
2026-05-05 17:11 -13.83003 -172.00687 36 ft 17 kts 102°
2026-05-05 17:11 -13.83074 -172.00655 37 ft 6 kts 180°
2026-05-05 17:11 -13.83105 -172.00655 39 ft 0 kts 180°
2026-05-05 17:12 -13.83118 -172.00664 39 ft 9 kts 251°
2026-05-05 17:12 -13.83136 -172.00720 43 ft 2 kts 181°
2026-05-05 17:12 -13.83156 -172.00722 48 ft 0 kts 191°
2026-05-05 17:13 -13.83164 -172.00729 50 ft 3 kts 335°
2026-05-05 17:13 -13.83160 -172.00729 49 ft 0 kts 43°